Location: Carlingford
(46.7848°N, 67.7474°W)
Time: 11:58:32
(UTC+00:00)

N. Korean satellite - Pass Details

Date: 07 December 2022
Orbit: 407 x 441 km, 97.3° (Epoch: 05 February)

Event Time Altitude Azimuth Distance (km) Brightness Sun altitude
Rises 21:18:40 0° 182° (S) 2,460 10.6 -6.1°
Reaches altitude 10° 21:20:45 10° 189° (S) 1,601 9.7 -6.5°
Maximum altitude 21:24:02 42° 262° (W) 679 8.0 -7.0°
Drops below altitude 10° 21:27:23 10° 334° (NNW) 1,635 9.3 -7.5°
Sets 21:29:32 0° 342° (NNW) 2,521 10.1 -7.8°
